EHI
0 0 0 1 2 3 2 1 0 0 0 0 0 0 1 1 1 0 0 0 0 0 0 0 0 0 0 0 0 0 0 0 0 0 0 0 0 0 0 0 0 0 0
0 0 0 1 2 3 2 1 0 0 0 0 0 0 0 0 0 0 0 0 0 0 0 0 0 0 0 0 0 0 0 0 0 0 0 0 0 0 0 0 0 0 0
0 0 0 1 2 3 2 1 0 0 0 0 0 0 0 0 0 0 0 0 0 0 0 0 0 0 0 0 0 0 0 0 0 0 0 0 0 0 0 0 0 0 0
0 0 0 0 1 3 3 1 0 0 0 0 0 0 0 0 0 0 0 0 0 0 0 0 0 0 0 0 0 0 0 0 0 0 0 0 0 0 0 0 0 0 0
0 0 0 0 1 2 3 2 1 0 0 0 0 0 0 0 0 0 0 0 0 0 0 0 0 0 0 0 0 0 0 0 0 0 0 0 0 0 0 0 0 0 0
0 0 0 0 1 2 3 2 1 0 0 0 0 0 0 0 0 0 0 0 0 0 0 0 0 0 0 0 0 0 0 0 0 0 0 0 0 0 0 0 0 0 0
0 0 0 0 1 2 3 2 1 0 0 0 0 0 0 0 0 0 0 0 0 0 0 0 0 0 0 0 0 0 0 0 0 0 0 0 0 0 0 0 0 0 0
0 0 0 0 0 1 2 2 1 0 0 0 0 0 0 0 0 0 0 0 0 0 0 0 0 0 0 0 0 0 0 0 0 0 0 0 0 0 0 0 0 0 0
0 0 0 0 0 0 1 2 1 0 0 0 0 0 0 0 0 0 0 0 0 0 0 0 0 0 0 0 0 0 0 0 0 0 0 0 0 0 0 0 0 0 0
0 0 0 0 0 0 0 1 1 0 0 0 0 0 0 0 0 0 0 0 0 0 0 0 0 0 0 0 0 0 0 0 0 0 0 0 0 0 0 0 0 0 0
0 0 0 0 0 0 0 0 0 0 0 0 0 0 0 0 0 0 0 0 0 0 0 0 0 0 0 0 0 0 0 0 0 0 0 0 0 0 0 0 0 0 0
0 0 0 0 0 0 0 0 0 0 0 0 0 0 0 0 0 0 0 0 0 0 0 0 0 0 0 0 0 0 0 0 0 0 0 0 0 0 0 0 0 0 0
0 0 0 0 0 0 0 0 0 0 0 0 0 0 0 0 0 0 0 0 0 0 0 0 0 0 0 0 0 0 0 0 0 0 0 0 0 0 0 0 0 0 0
0 0 0 0 0 0 0 0 0 0 0 0 0 0 0 0 0 0 0 0 0 0 0 0 0 0 0 0 0 0 0 0 0 0 0 0 0 0 0 0 0 0 0
0 0 0 0 0 0 0 0 0 0 0 0 0 0 0 0 0 0 0 0 0 0 0 0 0 0 0 0 0 0 0 0 0 0 0 0 0 0 0 0 0 0 0
0 0 0 0 0 0 0 0 0 0 0 0 0 0 0 0 0 0 0 0 0 0 0 0 0 0 0 0 0 0 0 0 0 0 0 0 0 0 0 0 0 0 0
0 0 0 0 0 0 0 0 0 0 0 0 0 0 0 0 0 0 0 0 0 0 0 0 0 0 0 0 0 0 0 0 0 0 0 0 0 0 0 0 0 0 0
0 0 0 0 0 0 0 0 0 0 0 0 0 0 0 0 0 0 0 0 0 0 0 0 0 0 0 0 0 0 0 0 0 0 0 0 0 0 0 0 0 0 0
0 0 0 0 0 0 0 0 0 0 0 0 0 0 0 0 0 0 0 0 0 0 0 0 0 0 0 0 0 0 0 0 0 0 0 0 0 0 0 0 0 0 0
0 0 0 0 0 0 0 0 0 0 0 0 0 0 0 0 0 0 0 0 0 0 0 0 0 0 0 0 0 0 0 0 0 0 0 0 0 0 0 0 0 0 0
0 0 0 0 0 0 0 0 0 0 0 0 0 0 0 0 0 0 0 0 0 0 0 0 0 0 0 0 0 0 0 0 0 0 0 0 0 0 0 0 0 0 0
0 0 0 0 0 0 0 0 0 0 0 0 0 0 0 0 0 0 0 0 0 0 0 0 0 0 0 0 0 0 0 0 0 0 0 0 0 0 0 0 0 0 0
0 0 0 0 0 0 0 0 0 0 0 0 0 0 0 0 0 0 0 0 0 0 0 0 0 0 0 0 0 0 0 0 0 0 0 0 0 0 0 0 0 0 0
0 0 0 0 0 0 0 0 0 0 0 0 0 0 0 0 0 0 0 0 0 0 0 0 0 0 0 0 0 0 0 0 0 0 0 0 0 0 0 0 0 0 0
0 0 0 0 0 0 0 0 0 0 0 0 0 0 0 0 0 0 0 0 0 0 0 0 0 0 0 0 0 0 0 0 0 0 0 0 0 0 0 0 0 0 0
0 0 0 0 0 0 0 0 0 0 0 0 0 0 0 0 0 0 0 0 0 0 0 0 0 0 0 0 0 0 0 0 0 0 0 0 0 0 0 0 0 0 0
Wind_Speed
2 3 3 3 3 3 3 2 2 2 2 2 2 2 2 2 2 2 2 2 2 3 3 2 2 2 2 3 3 3 4 3 3 4 3 3 3 3 2 3 3 3 3
2 2 2 2 3 2 2 2 2 2 2 2 1 1 2 2 2 2 2 3 2 2 2 3 2 2 2 3 3 3 2 2 1 3 3 1 2 2 2 2 2 3 3
2 1 2 1 2 2 2 2 2 2 2 1 1 2 2 2 1 2 1 2 2 2 3 2 2 2 3 3 2 2 3 3 1 1 2 3 2 0 1 1 2 2 2
1 1 1 1 1 1 1 2 2 2 2 2 2 4 3 2 2 2 2 2 2 2 3 3 3 3 3 3 3 2 1 3 3 0 1 1 3 3 1 1 1 1 1
1 1 1 1 1 0 1 1 2 2 2 2 3 3 3 2 2 2 2 2 1 1 2 2 2 3 3 3 3 2 2 2 3 2 1 1 1 1 3 2 1 1 1
2 2 2 2 1 1 1 0 1 2 2 2 3 3 4 4 4 3 3 2 1 1 2 2 2 3 3 3 3 2 2 2 2 2 2 2 2 2 2 2 2 1 1
2 2 2 1 1 1 0 1 1 1 1 2 2 3 3 4 5 4 4 3 2 2 3 2 2 2 3 3 2 2 2 2 2 2 2 1 1 2 2 2 1 1 1
2 2 1 1 1 1 1 0 1 1 1 1 1 1 2 2 3 4 4 4 3 3 3 3 2 3 3 3 3 2 2 2 2 2 2 1 1 1 2 2 2 1 1
2 2 2 1 1 0 0 1 1 1 1 1 1 1 1 2 2 3 3 3 2 3 4 4 3 3 3 3 3 3 3 2 3 3 2 2 2 1 1 1 2 3 3
1 2 2 2 1 1 0 1 1 1 1 1 1 1 2 2 1 2 3 3 3 3 3 4 4 3 3 3 3 3 3 3 3 2 3 2 2 2 2 2 2 2 3
0 1 1 1 1 0 0 0 1 1 1 1 2 1 2 2 2 2 2 2 3 3 4 4 4 4 4 4 4 3 4 4 3 3 3 3 2 2 2 2 2 2 2
1 0 1 1 1 1 0 0 1 1 2 2 1 1 1 1 2 2 2 2 3 3 3 4 4 4 4 5 5 5 5 5 5 4 4 4 3 3 3 3 3 3 2
1 1 1 1 1 1 1 1 1 1 1 2 2 2 2 2 2 2 2 3 3 3 4 4 5 5 5 5 6 6 6 6 5 5 5 5 4 4 3 4 4 3 2
1 1 2 2 2 1 1 1 1 1 1 1 2 2 2 2 2 2 2 3 3 4 4 4 5 5 5 5 6 6 6 5 5 6 6 6 6 6 5 5 5 4 3
2 2 2 2 2 2 2 1 1 1 1 1 2 3 3 2 2 2 2 2 3 4 4 4 4 4 4 5 6 6 6 6 5 5 6 6 7 7 6 5 5 5 4
4 4 4 3 3 3 2 2 2 2 1 1 2 2 2 2 2 3 3 3 3 3 3 4 4 5 5 7 8 6 5 5 5 5 5 5 6 8 9 9 8 7 6
4 4 4 4 3 3 3 3 2 2 1 2 2 2 2 2 3 3 3 4 4 3 4 4 4 5 6 8 9 9 5 5 5 5 5 4 5 7 5 7 8 8 9
4 4 4 4 4 3 3 2 2 2 2 2 2 2 2 3 2 3 4 4 4 4 4 4 4 4 5 8 9 8 5 5 5 6 6 6 5 6 6 5 4 5 6
3 3 4 3 3 3 2 2 2 1 2 2 2 3 2 2 3 3 3 3 3 4 4 4 4 5 5 8 8 7 4 4 5 5 5 5 5 8 8 5 5 5 4
3 3 3 3 3 2 1 1 2 2 2 3 3 3 3 3 3 4 4 3 3 4 4 4 4 5 5 7 8 7 4 4 4 4 5 7 7 8 9 6 6 6 5
3 3 3 3 3 2 1 2 2 3 3 2 2 3 3 3 4 3 3 3 3 3 3 3 3 4 5 6 8 8 4 4 3 3 3 4 7 8 9 7 6 7 5
3 3 2 3 3 2 2 2 3 3 2 2 3 3 3 3 3 2 2 2 2 3 3 3 3 3 4 5 6 8 6 5 4 3 3 3 6 7 7 5 5 6 5
3 3 2 3 3 3 2 3 3 2 2 2 3 3 3 2 2 2 2 2 2 2 2 2 2 2 2 3 5 6 6 6 3 3 4 5 6 5 4 4 4 4 3
3 3 3 3 4 4 3 3 3 2 1 2 2 2 2 2 2 2 2 2 2 2 2 2 2 2 2 2 2 3 3 4 3 2 3 4 4 3 2 2 2 2 2
3 2 2 3 4 4 4 4 3 2 2 2 2 2 2 1 1 2 2 2 2 3 3 3 3 3 3 4 5 3 2 2 3 3 2 2 2 2 1 1 1 1 1
3 3 3 4 4 4 4 4 3 2 2 2 2 2 2 1 1 1 1 2 3 4 5 5 5 3 4 5 5 4 4 3 4 3 3 2 2 2 2 2 1 2 2
Wind_Direction
119 91 102 116 112 115 120 128 139 136 138 139 146 148 141 124 118 118 114 110 108 107 99 108 103 92 105 107 104 111 108 100 100 91 68 35 40 57 66 74 82 83 81
88 92 92 97 121 126 132 148 147 150 154 161 169 168 143 130 127 126 128 130 126 131 117 121 124 116 116 113 112 117 124 123 107 120 120 95 33 17 34 60 83 89 75
161 141 117 97 119 144 163 177 167 162 166 157 133 128 115 110 111 119 129 127 126 146 135 131 137 135 128 135 137 136 137 145 163 132 139 145 167 104 10 46 81 92 93
149 116 129 119 127 169 174 176 167 160 170 162 159 161 161 164 169 158 152 142 137 159 145 141 148 144 139 146 162 154 162 149 155 178 26 136 139 143 133 352 32 60 90
135 121 128 139 129 110 163 180 154 154 167 171 176 180 172 166 149 144 151 144 139 165 158 157 154 150 153 158 161 163 172 158 157 158 138 119 88 122 142 177 242 345 308
92 74 69 96 109 96 91 153 168 165 167 174 183 193 182 167 160 166 169 165 159 175 176 167 158 163 162 168 171 171 179 163 157 164 155 152 154 166 150 164 179 216 266
105 82 75 66 103 124 154 206 167 171 177 190 195 202 194 180 178 181 184 181 177 192 198 187 175 176 171 167 161 164 175 175 171 180 183 181 181 157 142 141 167 224 256
106 98 85 93 77 176 181 187 199 199 191 203 209 203 196 189 187 186 187 191 194 197 191 191 187 185 171 165 162 168 183 180 184 188 178 175 195 179 153 151 148 165 260
88 76 39 35 55 25 238 210 212 207 204 210 206 206 200 200 196 185 181 186 184 182 181 186 187 191 176 173 170 177 190 187 190 189 189 194 197 181 183 169 167 171 210
60 51 29 10 6 5 297 250 200 197 203 206 216 224 208 198 187 173 181 180 179 172 175 183 186 188 184 180 178 181 190 190 202 195 189 206 201 184 191 193 200 199 197
43 17 353 337 342 347 336 345 240 205 205 215 220 225 213 196 185 187 190 186 181 173 181 194 190 188 191 186 185 192 196 193 201 198 195 207 206 195 191 190 197 213 201
27 11 325 316 310 293 289 247 262 239 221 222 227 226 224 207 196 199 200 193 190 185 187 195 197 199 203 194 191 201 204 201 202 201 198 210 209 208 200 195 204 212 212
1 8 353 319 309 282 255 235 240 252 249 223 213 221 224 216 212 212 207 204 199 192 193 195 200 205 207 202 204 205 209 209 208 204 204 208 203 211 209 201 202 208 212
312 327 319 317 314 308 299 268 259 263 257 247 216 222 229 225 217 211 216 214 207 200 200 203 206 209 213 211 209 210 210 212 214 209 206 206 205 209 207 208 204 198 199
325 312 308 311 311 309 305 297 281 274 260 249 242 233 234 232 224 213 219 222 217 216 206 204 209 211 216 216 210 209 210 211 214 210 208 209 211 214 212 218 206 196 198
305 307 307 307 303 296 291 291 286 281 270 256 260 257 239 231 226 223 216 221 224 219 212 209 209 215 226 227 223 223 211 209 210 213 215 214 210 214 219 229 225 211 205
304 308 309 302 297 296 290 281 279 284 268 262 265 262 253 248 235 230 219 221 222 218 218 216 210 219 229 233 229 229 221 214 213 211 212 219 219 218 213 227 230 225 223
313 314 314 312 307 306 302 297 293 275 263 264 266 265 255 250 248 232 225 226 220 220 223 222 217 223 238 238 232 230 221 219 216 213 209 210 213 215 210 210 218 223 225
311 307 306 308 314 313 310 312 302 282 264 263 267 268 261 256 250 246 242 233 225 225 225 226 220 223 236 240 237 233 215 219 217 215 209 207 209 221 217 207 213 225 231
331 322 321 327 321 315 325 319 293 266 262 267 274 272 262 254 253 253 253 248 237 229 225 230 222 220 226 237 240 236 219 220 222 216 210 215 219 221 218 208 206 220 217
329 329 330 332 324 327 335 308 297 271 274 283 279 271 263 256 253 252 248 245 243 229 221 229 234 224 229 236 240 240 227 212 216 218 210 212 219 223 223 222 214 222 212
338 342 339 331 333 342 340 312 292 284 284 276 275 272 266 265 266 249 250 240 223 225 220 220 236 238 236 238 240 242 238 228 212 217 211 207 212 216 216 217 214 215 210
326 336 334 328 331 338 329 304 303 296 275 270 270 272 275 273 273 258 249 238 213 211 232 219 228 249 249 237 244 244 238 239 225 211 213 213 207 206 204 204 206 204 192
318 329 331 325 322 328 324 309 314 327 314 291 290 289 281 277 273 264 254 238 219 213 221 231 233 241 248 236 231 221 225 226 220 200 199 205 197 191 178 182 200 201 187
316 318 310 308 311 319 319 319 322 329 320 309 308 310 299 285 280 273 251 250 239 226 226 223 221 230 237 243 248 243 229 200 189 162 154 156 154 161 158 162 168 169 167
313 312 309 308 310 317 318 320 320 319 310 309 311 302 297 291 283 284 307 286 269 269 262 255 249 251 252 258 251 250 245 212 175 155 156 166 170 171 174 179 182 188 185